Regional Weather Roundup
Issued by NWS

Home | Current Version | Previous Version | Text Only | Print | Product List | Glossary Off
Versions: 1 2 3 4 5 6 7 8 9 10 11 12 13 14 15 16 17 18 19 20 21 22 23 24 25 26 27 28 29 30 31 32 33 34 35 36 37 38 39 40 41 42 43 44 45 46 47 48 49 50

000
ASUS43 KOAX 222210
RWRNE

WEATHER ROUNDUP FOR NEBRASKA
NATIONAL WEATHER SERVICE OMAHA NE
500 PM CDT WED MAR 22 2017

NOTES: SATELLITE DATA IS BEING USED TO AUGMENT CLOUD COVER ABOVE
       12000 FEET.
       "FAIR" INDICATES FEW OR NO CLOUDS BELOW 12,000 FEET WITH NO
       SIGNIFICANT WEATHER AND/OR OBSTRUCTIONS TO VISIBILITY.

  * THESE STATIONS DO NOT REPORT WEATHER SUCH AS RAIN...SNOW OR FOG.

NEZ001>004-019>022-054>056-222300-
NEBRASKA PANHANDLE

CITY           SKY/WX    TMP DP  RH WIND       PRES   REMARKS
SCOTTSBLUFF    SUNNY     71  34  25 SE13      29.83S
ALLIANCE       SUNNY     64  35  34 S26G35    29.84F
CHADRON        CLOUDY    66  36  32 S17       29.80F
KIMBALL        CLOUDY    67  37  33 SE16G23   29.88F
SIDNEY         CLOUDY    64  35  34 S21       29.89F
$$

NEZ057>060-069>072-079>082-222300-
SOUTHWEST NEBRASKA

CITY           SKY/WX    TMP DP  RH WIND       PRES   REMARKS
NORTH PLATTE   SUNNY     54  30  40 S21G26    30.01F
IMPERIAL       SUNNY     59  34  39 S23G31    29.96F
LEXINGTON      CLOUDY    51  27  39 S17       30.06F
MCCOOK         CLOUDY    54  33  45 SE18G25   30.02F
OGALLALA       SUNNY     63  35  34 S21       29.94F
$$

NEZ005>010-023>029-035>040-094-222300-
NORTH CENTRAL NEBRASKA

CITY           SKY/WX    TMP DP  RH WIND       PRES   REMARKS
VALENTINE      SUNNY     57  32  38 S23G35    29.93F
AINSWORTH      CLOUDY    49  31  48 S25       29.99S
BROKEN BOW     CLOUDY    52  27  38 S22G35    30.04F
O`NEILL        CLOUDY    51  22  32 SE21G30   30.06F
ORD            CLOUDY    53  21  28 SE20G28   30.06F
THEDFORD       SUNNY     52  31  45 S21G26    29.99F
$$

NEZ041-046>049-061>064-073>077-083>087-222300-
SOUTH CENTRAL NEBRASKA

CITY           SKY/WX    TMP DP  RH WIND       PRES   REMARKS
GRAND ISLAND   CLOUDY    56  23  27 SE20G26   30.12F
AURORA         PTSUNNY   57  15  19 SE18G28   30.12F
HASTINGS       CLOUDY    55  21  26 S17       30.12F
HEBRON         CLOUDY    56  17  21 SE18      30.14F
HOLDREGE       CLOUDY    51  25  36 S20G26    30.09S
KEARNEY *      CLOUDY    54  25  32 S18G24    30.10F
YORK           CLOUDY    55  16  21 SE17G24   30.14F
$$

NEZ011>018-030>034-042>045-222300-
NORTHEAST NEBRASKA

CITY           SKY/WX    TMP DP  RH WIND       PRES   REMARKS
NORFOLK        CLOUDY    50  20  30 SE18      30.14F
ALBION         CLOUDY    54  14  20 SE18G26   30.12F
BLAIR          CLOUDY    50  24  35 SE17      30.22F
FREMONT        CLOUDY    49  22  34 SE15      30.21F
TEKAMAH        CLOUDY    50  22  33 SE16      30.23F
WAYNE          PTSUNNY   47  26  43 SE21      30.18F
$$

NEZ050>053-065>068-078-088>093-222300-
SOUTHEAST NEBRASKA

CITY           SKY/WX    TMP DP  RH WIND       PRES   REMARKS
LINCOLN        CLOUDY    53  20  27 SE16      30.21F
OMAHA EPPLEY   CLOUDY    51  22  31 SE17      30.23F
BEATRICE       CLOUDY    58  22  24 SE15      30.16F
FALLS CITY     SUNNY     57  26  30 E17       30.20F
NEBRASKA CITY  CLOUDY    53  15  22 E16G23    30.22F
PLATTSMOUTH    CLOUDY    50  18  27 E16G22    30.23F
$$

NEZ044-045-051>053-067-222300-
OMAHA AREA

CITY           SKY/WX    TMP DP  RH WIND       PRES   REMARKS
OMAHA EPPLEY   CLOUDY    51  22  31 SE17      30.23F
BLAIR          CLOUDY    50  24  35 SE17      30.22F
FREMONT        CLOUDY    49  22  34 SE15      30.21F
MILLARD        CLOUDY    52  26  37 SE15G21   30.23F
OFFUTT AFB     CLOUDY    50  24  36 E16       30.23F
PLATTSMOUTH    CLOUDY    50  18  27 E16G22    30.23F
WAHOO          CLOUDY    50  19  29 SE18G24   30.21F
$$



USA.gov is the U.S. government's official web portal to all federal, state and local government web resources and services.